Location: Zagreb
(45.8000°N, 16.0000°E)
Time: 12:49:09
(UTC+02:00)

Envisat - Pass Details

Date: 22 January 2022
Orbit: 764 x 765 km, 98.2° (Epoch: 22 May)

Event Time Altitude Azimuth Distance (km) Brightness Sun altitude
Rises 06:05:15 0° 2° (N) 3,241 6.1 -14.4°
Reaches altitude 10° 06:07:55 10° 350° (N) 2,310 5.2 -13.9°
Maximum altitude 06:11:58 25° 297° (WNW) 1,524 4.0 -13.2°
Drops below altitude 10° 06:16:01 10° 244° (WSW) 2,299 5.0 -12.5°
Sets 06:18:39 0° 231° (SW) 3,221 5.9 -12.1°
